Flag for U.S.A. Weather past 2 weeks in Santa Cruz, California, U.S.A.

Now
58 °F

Overcast.


Feels Like: 58 °F
Forecast: 47 / 58 °F
Wind: No wind

Location: Watsonville Municipal Airport

Current Time: Mar 1, 2015 at 8:05:39 PM

Latest Report: Mar 1, 2015 at 6:53 PM


Visibility: 10 mi

Pressure: 29.93 "Hg

Humidity: 62%

Dew point: 45 °F

Location of Santa CruzLocation

Historic Weather in Santa Cruz — Graph

°F

Santa Cruz temperature yesterday

Maximum temperature yesterday: 58 °F (at 10:53 AM)
Minimum temperature yesterday: 44 °F (at 11:53 PM)
Average temperature yesterday: 50 °F

Past Weeks' High & Low Weather Summary

 TemperatureHumidityPressure
High78 °F (Feb 15, 12:53 PM)100% (Feb 28, 7:53 PM)30.37 "Hg (Feb 28, 7:53 PM)
Low38 °F (Feb 24, 6:53 AM)29% (Feb 23, 12:53 PM)29.76 "Hg (Feb 28, 4:53 AM)
Average55 °F75%30.03 "Hg
* Reported Feb 14 6:53 PM — Mar 1 6:53 PM, Santa Cruz, Weather by CustomWeather, © 2015

Note: Actual official high and low records may vary slightly from our data, if they occured in-between our weather recording intervals... More about our weather records

Advertising

Santa Cruz weather history for previous 24 hours

 ConditionsComfort  
Time TempWeatherWind HumidityBarometerVisibility
6:53 PM
Sun, Mar 1
58 °FOvercast.No wind62%29.93 "Hg10 mi
5:53 PM56 °FSunny.7 mph62%29.91 "Hg10 mi
4:53 PM60 °FSunny.8 mph53%29.90 "Hg10 mi
3:53 PM61 °FSunny.12 mph58%29.91 "Hg10 mi
2:53 PM63 °FSunny.10 mph54%29.91 "Hg10 mi
1:53 PM63 °FPassing clouds.10 mph58%29.92 "Hg10 mi
12:53 PM64 °FSunny.6 mph54%29.94 "Hg10 mi
11:53 AM61 °FSunny.No wind60%29.97 "Hg10 mi
10:53 AM59 °FSunny.No wind67%29.98 "Hg10 mi
9:53 AM56 °FSunny.No wind72%29.99 "Hg10 mi
8:53 AM51 °FSunny.5 mph80%29.99 "Hg10 mi
7:53 AM47 °FSunny.7 mph86%29.98 "Hg10 mi
6:53 AM41 °FSunny.5 mph93%29.97 "Hg10 mi
5:53 AM41 °FPassing clouds.No wind93%29.96 "Hg10 mi
4:53 AM42 °FPassing clouds.3 mph89%29.95 "Hg10 mi
3:53 AM41 °FClear.No wind93%29.94 "Hg10 mi
2:53 AM41 °FClear.No wind93%29.94 "Hg10 mi
1:53 AM42 °FClear.3 mph92%29.93 "Hg10 mi
12:53 AM43 °FClear.No wind93%29.93 "Hg10 mi
11:53 PM
Sat, Feb 28
44 °FClear.5 mph100%29.92 "Hg10 mi
10:53 PM45 °FClear.3 mph100%29.91 "Hg10 mi
9:53 PM45 °FClear.5 mph100%29.90 "Hg10 mi
8:53 PM46 °FClear.3 mph100%29.89 "Hg10 mi
Weather by CustomWeather, © 2015

See weather overviewHow to use our weather pages